Simultaneous Nadir Overpasses (SNOs) Predictions

Prediction of SNOs between METOP-A and NOAA-19 Satellite Orbit:

Table of predicted SNOs for the next 14.0 days since TLE Epoch: 10/26/2014
Index Date (METOP-A) Time (METOP-A) Lat,Lon (METOP-A) SZA (METOP-A ) Date (NOAA-19) Time (NOAA-19) Lat,Lon (NOAA-19) SZA (NOAA-19 ) Distance(km) Time Diff (sec)
1 10/30/2014 08:39:06 74.64, 46.55 88.35 10/30/2014 08:37:55 74.67, 45.11 88.39 42.60 71
2 10/30/2014 09:29:53 -74.37,-146.82 91.91 10/30/2014 09:28:48 -74.40,-146.88 91.89 3.07 65
3 10/30/2014 10:20:33 74.37, 20.50 88.10 10/30/2014 10:19:52 74.37, 20.43 88.10 2.29 41
4 10/30/2014 11:11:15 -74.35,-172.22 91.91 10/30/2014 11:10:50 -74.33,-172.22 91.93 1.80 25
5 10/30/2014 12:01:56 74.30, -5.02 88.05 10/30/2014 12:01:54 74.31, -4.92 88.06 3.39 2
6 10/30/2014 12:52:37 -74.33, 162.38 91.91 10/30/2014 12:52:53 -74.32, 162.31 91.92 2.28 16
7 10/30/2014 13:43:18 74.27, -30.42 88.05 10/30/2014 13:43:57 74.29, -30.39 88.07 2.40 39
8 10/30/2014 14:34:00 -74.25, 136.85 91.96 10/30/2014 14:34:55 -74.25, 136.96 91.96 3.33 55
9 10/30/2014 15:24:44 74.05, -56.32 87.86 10/30/2014 15:25:56 74.08, -55.36 87.89 29.53 72




NCC Satellite Simultaneous Nadir Overpasses (SNOs) Prediction Service
